DECAYED

OBJECT DC, 58571 (Decayed)

Orbit data source: Space-Track

You're viewing an uncataloged RSO

Recently launched and/or uncataloged RSOs may have evolving metadata. Metadata may include the following, but is not limited to: Owner, Manufacturer, Bus, Motor, and Mission.

OBJECT DC, 58571 was a satellite in LEO that was launched on Sat, 11 Nov 2023 UTC via an FALCON 9 launch vehicle from the Air Force Western Test Range (AFWTR). Unknown objects in Earth's orbit typically refer to objects detected orbiting the Earth but have not yet been identified or cataloged. These objects could be anything from previously untracked satellites, spent rocket stages, debris from satellite collisions, or even natural meteoroids temporarily captured by Earth's gravity. This object's orbit decayed before it could be identified.

Not visible in the next 10 days
Identifier
58571, 2023-174DC
Orbit
Decayed
Country
Flag of TBDTBD
Related business
None
Manufacturer
Unknown
Mission
Decayed Commercial Communications
Bus & Motor
Unknown
Mass
Unknown
Launch date (UTC)
2023-11-11 (3 years ago)
Launch vehicle
FALCON 9
Launch site
Air Force Western Test Range (AFWTR)
Object type
Unknown
Shape & HBR
Box, 0.0 m
Radar Cross Section
0.004 m², Medium (>0.1 m² and < 1m²)

Expand to show TLE details & history
Last TLE update: 1 year ago

TLE from 1 year ago
0 OBJECT DC
1 58571U 23174DC  25077.36158364  .07316687  24791-5  16424-2 0  9995
2 58571  97.3823 165.9877 0011621 272.0852  87.9112 16.30076890 76113
Epoch: 2025-03-18T08:40Z
TLE epoch observation values (Epoch: 2025-03-18T08:40:40.826Z)
Latitude
0.00004°
Longitude
-140.34758°
Altitude
195.302 km
Speed
7.789 km/s
True Right ascension
11h 03m 57s
True Declination
0° 00' 00"
Sunlit
Object was in full shadow at epoch
Visualization orbit readout
Latitude
Unknown
Longitude
Unknown
Altitude
Unknown
Speed
Unknown
Apparent Right ascension
Unknown
Apparent Declination
Unknown
Sunlit
N/A
Visualization observer readout
Local Sidereal Time
00:15:19
Azimuth
Unknown
Elevation
Unknown
Doppler factor
Unknown
Orbital elements
Apogee altitude
196.785 km
Perigee altitude
181.521 km
Semi-major axis
6,567.29 km
Eccentricity
0.00116
Inclination
97.3823°
RAAN
165.9877°
Arg. of periapsis
272.0852°
True anomaly
88.04429°
Mean anomaly
87.9112°
Eccentric anomaly
87.97774°
Mean motion
4.07816 °/min
Orbital period
88.28 mins
BSTAR
0.0016424
Loading maneuver chart data...
Computing Atmospheric mass density...
Loading historical data...
Loading historical data...
Loading historical data...
Loading historical data...
Loading historical data...
Loading historical data...
Loading historical data...

Documentation

Showing up to 5 results
|